Location: Arcones
(41.1182°N, 3.7238°W)
Time: 19:43:09
(UTC+00:00)

YAOGAN 1 - Pass Details

Date: 16 March 2026
Orbit: 604 x 606 km, 97.8° (Epoch: 21 April)

Event Time Altitude Azimuth Distance (km) Brightness Sun altitude
Rises 19:41:33 0° 203° (SSW) 2,849 6.1 -15.6°
Reaches altitude 10° 19:44:17 10° 222° (SW) 1,951 5.5 -16.1°
Maximum altitude 19:47:16 19° 267° (W) 1,477 5.5 -16.6°
Drops below altitude 10° 19:50:16 10° 312° (NW) 1,962 6.1 -17.2°
Sets 19:53:02 0° 331° (NNW) 2,871 6.6 -17.7°
